CW9769 Weather Reports


Display with metric or nautical units.
time (UTC)temp
F
wind
direction
speed
MPH
gust
MPH
rain 1hr
in
rain 24hr
in
rain mn
in
humidity
%
barometer
mb
20260505100120 62 296 9.0 20.0 0.00 0.00 0.00 67 1004.2
20260505095119 63 291 12.0 20.0 0.00 0.00 0.00 67 1004.2
20260505094118 63 275 10.0 17.0 0.00 0.00 0.00 65 1003.6
20260505093047 63 267 8.0 20.0 0.00 0.00 0.00 64 1003.2
20260505092015 64 266 10.0 20.0 0.00 0.00 0.00 63 1003.2
20260505090943 64 282 10.0 18.0 0.00 0.00 0.00 63 1003.4
20260505085942 64 283 12.0 22.0 0.00 0.00 0.00 63 1003.3
20260505084940 64 274 11.0 22.0 0.00 0.00 0.00 63 1003.0
20260505083939 65 263 10.0 25.0 0.00 0.00 0.00 61 1003.0
20260505082938 65 277 15.0 25.0 0.00 0.00 0.00 60 1003.0
20260505081937 66 277 12.0 24.0 0.00 0.00 0.00 58 1003.0
20260505080936 67 270 14.0 25.0 0.00 0.00 0.00 57 1003.1
20260505075936 67 292 16.0 27.0 0.00 0.00 0.00 56 1002.7
20260505074935 67 293 14.0 28.0 0.00 0.00 0.00 55 1002.7
20260505073933 67 277 15.0 25.0 0.00 0.00 0.00 56 1002.7
20260505072932 68 279 14.0 23.0 0.00 0.00 0.00 55 1002.7
20260505071930 68 265 14.0 24.0 0.00 0.00 0.00 54 1002.7
20260505070930 68 266 15.0 24.0 0.00 0.00 0.00 54 1002.7
20260505065929 68 278 11.0 22.0 0.00 0.00 0.00 54 1002.7
20260505064928 68 283 10.0 21.0 0.00 0.00 0.00 55 1002.7
20260505063927 68 276 11.0 21.0 0.00 0.00 0.00 55 1002.7
20260505062927 68 274 11.0 19.0 0.00 0.00 0.00 55 1003.0
20260505061925 68 270 11.0 19.0 0.00 0.00 0.00 56 1002.7
20260505060925 68 269 10.0 18.0 0.00 0.00 0.00 56 1002.7
20260505055924 67 269 9.0 15.0 0.00 0.00 0.00 59 1002.7
20260505054923 67 257 8.0 18.0 0.00 0.00 0.00 59 1003.0
20260505053922 67 256 9.0 18.0 0.00 0.00 0.00 60 1003.0
20260505052920 66 258 8.0 17.0 0.00 0.00 0.00 60 1003.0
20260505051920 66 256 8.0 19.0 0.00 0.00 0.00 61 1003.3
20260505050919 66 256 10.0 19.0 0.00 0.00 0.00 61 1003.3
20260505040844 65 245 5.0 15.0 0.00 0.00 0.00 65 1003.6
20260505035843 65 241 7.0 15.0 0.00 0.00 0.00 64 1003.5
20260505034841 65 246 5.0 13.0 0.00 0.00 0.00 65 1003.5
20260505033840 65 248 6.0 14.0 0.00 0.00 0.00 64 1003.8
20260505032839 64 241 6.0 13.0 0.00 0.00 0.00 65 1003.8
20260505031838 64 245 5.0 10.0 0.00 0.00 0.00 65 1003.8
20260505030838 65 245 5.0 10.0 0.00 0.00 0.00 64 1004.1
20260505025837 65 239 5.0 10.0 0.00 0.00 0.00 63 1003.8
20260505024805 65 238 5.0 11.0 0.00 0.00 0.00 63 1004.1
20260505023803 65 238 5.0 11.0 0.00 0.00 0.00 62 1004.1
20260505022802 65 246 5.0 10.0 0.00 0.00 0.00 61 1004.1
20260505021802 65 240 5.0 12.0 0.00 0.00 0.00 60 1004.1
20260505020801 65 230 4.0 10.0 0.00 0.00 0.00 60 1003.7
20260505015800 66 244 5.0 14.0 0.00 0.00 0.00 59 1003.7
20260505014759 66 242 4.0 14.0 0.00 0.00 0.00 58 1003.7
20260505013758 67 252 6.0 17.0 0.00 0.00 0.00 57 1004.0
20260505012758 67 259 7.0 21.0 0.00 0.00 0.00 56 1003.7
20260505011757 67 261 10.0 17.0 0.00 0.00 0.00 55 1003.7
20260505010756 68 258 9.0 16.0 0.00 0.00 0.00 54 1003.7
20260505005755 68 254 10.0 16.0 0.00 0.00 0.00 53 1003.7
20260505004755 69 262 10.0 19.0 0.00 0.00 0.00 52 1003.7
20260505003754 68 255 12.0 19.0 0.00 0.00 0.00 52 1003.3
20260505002753 69 265 7.0 11.0 0.00 0.00 0.00 53 1003.6
20260505001752 69 261 5.0 13.0 0.00 0.00 0.00 52 1003.3
20260505000751 69 269 7.0 16.0 0.00 0.00 0.00 50 1002.9
20260504235751 70 285 8.0 20.0 0.00 0.00 0.00 49 1003.0
20260504234750 70 280 8.0 18.0 0.00 0.00 0.00 50 1002.9
20260504233718 71 278 8.0 20.0 0.00 0.00 0.00 50 1002.6
20260504232718 72 273 13.0 21.0 0.00 0.00 0.00 48 1002.3
20260504231717 72 273 12.0 22.0 0.00 0.00 0.00 51 1002.6
20260504230644 72 260 10.0 22.0 0.00 0.00 0.00 50 1002.6
20260504225541 72 259 10.0 20.0 0.00 0.00 0.00 50 1002.6
20260504224540 72 259 12.0 23.0 0.00 0.00 0.00 51 1002.6
20260504223539 72 270 13.0 23.0 0.00 0.00 0.00 52 1003.0
20260504222537 72 259 14.0 21.0 0.00 0.00 0.00 52 1003.0
20260504221536 72 269 13.0 22.0 0.00 0.00 0.00 54 1003.0
20260504220536 71 260 11.0 19.0 0.00 0.00 0.00 55 1003.3
20260504215504 70 261 6.0 16.0 0.00 0.00 0.00 59 1003.2
20260504214401 70 246 9.0 16.0 0.00 0.00 0.00 59 1003.3
20260504213400 70 243 5.0 27.0 0.00 0.00 0.00 61 1003.3
20260504212400 70 250 11.0 27.0 0.00 0.00 0.00 58 1003.3
20260504211359 74 257 14.0 27.0 0.00 0.00 0.00 51 1003.7
20260504210358 74 256 11.0 23.0 0.00 0.00 0.00 48 1003.4
20260504205357 73 261 12.0 24.0 0.00 0.00 0.00 51 1003.4
20260504204357 73 275 17.0 24.0 0.00 0.00 0.00 49 1003.7
20260504203324 73 268 15.0 26.0 0.00 0.00 0.00 51 1003.6
20260504202252 72 268 11.0 22.0 0.00 0.00 0.00 51 1004.0
20260504201251 74 288 12.0 20.0 0.00 0.00 0.00 49 1004.0
20260504200250 73 251 8.0 27.0 0.00 0.00 0.00 51 1004.3
20260504195249 73 270 12.0 27.0 0.00 0.00 0.00 51 1004.3
20260504194249 72 257 10.0 23.0 0.00 0.00 0.00 49 1004.6
20260504193248 73 276 14.0 22.0 0.00 0.00 0.00 48 1005.0
20260504192247 72 246 10.0 22.0 0.00 0.00 0.00 49 1004.6
20260504191247 72 271 9.0 19.0 0.00 0.00 0.00 49 1004.9
20260504190246 72 249 10.0 21.0 0.00 0.00 0.00 50 1005.3
20260504185245 72 258 11.0 21.0 0.00 0.00 0.00 47 1005.3
20260504184244 71 276 10.0 22.0 0.00 0.00 0.00 49 1005.3
20260504183243 71 252 7.0 19.0 0.00 0.00 0.00 48 1005.3
20260504182243 71 258 8.0 20.0 0.00 0.00 0.00 50 1005.6
20260504181242 70 247 8.0 19.0 0.00 0.00 0.00 50 1005.6
20260504180209 70 246 9.0 21.0 0.00 0.00 0.00 49 1005.6
20260504175209 71 275 12.0 21.0 0.00 0.00 0.00 48 1005.6
20260504174208 70 253 11.0 19.0 0.00 0.00 0.00 46 1005.9
20260504173207 70 254 9.0 19.0 0.00 0.00 0.00 46 1005.9
20260504172206 70 244 8.0 17.0 0.00 0.00 0.00 49 1005.8
20260504171206 69 235 8.0 17.0 0.00 0.00 0.00 52 1006.2
20260504170205 70 254 9.0 18.0 0.00 0.00 0.00 50 1006.2
20260504150849 64 275 10.0 15.0 0.00 0.00 0.00 56 1007.0
20260504140743 61 275 8.0 16.0 0.00 0.00 0.00 56 1007.3
20260504130735 58 279 10.0 15.0 0.00 0.00 0.00 59 1007.5